This is the latest recevied weather packets stored in our database for station/object KC1BRV. If no packets are shown the sender has not sent any weather packets the latest 10 day(s).
| Time | Temp. | Humidity | Pressure | Rain* | Wind** | Luminosity | Snow |
|---|---|---|---|---|---|---|---|
| 1788452436 | 25° C | 86% | 1014.4 hPa | 0 mm | - | 670 W/m² | - |
| 1788452132 | 25° C | 85% | 1014.4 hPa | 0 mm | - | 663 W/m² | - |
| 1788451828 | 25° C | 84% | 1014.5 hPa | 0 mm | - | 366 W/m² | - |
| 1788451526 | 25° C | 86% | 1014.4 hPa | 0 mm | - | 366 W/m² | - |
| 1788451221 | 25° C | 86% | 1014.5 hPa | 0 mm | - | 391 W/m² | - |
| 1788450920 | 25° C | 87% | 1014.5 hPa | 0 mm | - | 367 W/m² | - |
| 1788450616 | 24.44° C | 90% | 1014.4 hPa | 0 mm | - | 392 W/m² | - |
| 1788450312 | 24.44° C | 92% | 1014.8 hPa | 0 mm | - | 402 W/m² | - |
| 1788450008 | 23.89° C | 93% | 1014.6 hPa | 0 mm | - | 394 W/m² | - |
| 1788449703 | 23.33° C | 93% | 1014.5 hPa | 0 mm | - | 345 W/m² | - |
| 1788449399 | 23.33° C | 94% | 1014.5 hPa | 0 mm | - | 342 W/m² | - |
| 1788449094 | 22.78° C | 96% | 1014.9 hPa | 0 mm | - | 302 W/m² | - |
| 1788448790 | 22.78° C | 97% | 1014.8 hPa | 0 mm | - | 269 W/m² | - |
| 1788448484 | 22.22° C | 97% | 1014.7 hPa | 0 mm | - | 224 W/m² | - |
| 1788448179 | 22.22° C | 98% | 1014.9 hPa | 0 mm | - | 187 W/m² | - |
| 1788447874 | 22.78° C | 98% | 1014.9 hPa | 0 mm | - | 207 W/m² | - |
| 1788447574 | 22.22° C | 98% | 1014.9 hPa | 0 mm | - | 262 W/m² | - |
| 1788447269 | 22.22° C | 99% | 1015 hPa | 0 mm | - | 237 W/m² | - |
| 1788446964 | 21.67° C | 99% | 1015 hPa | 0 mm | - | 333 W/m² | - |
| 1788446663 | 21.67° C | 99% | 1015.2 hPa | 0 mm | - | 255 W/m² | - |
| 1788446359 | 21.67° C | 99% | 1015.2 hPa | 0 mm | - | 171 W/m² | - |
| 1788446056 | 21.11° C | 99% | 1015.2 hPa | 0 mm | - | 150 W/m² | - |
| 1788445751 | 21.11° C | 98% | 1015.4 hPa | 0 mm | - | 126 W/m² | - |
| 1788445447 | 21.11° C | 99% | 1015.4 hPa | 0 mm | - | 66 W/m² | - |
| 1788445143 | 21.11° C | 99% | 1015.7 hPa | 0 mm | - | 79 W/m² | - |
* Rain latest hour (hover to see other rain measurements)
** Current wind speed in m/s (hover to see current wind gust speed)